N1EDZ Weather Reports


time (UTC)temp
C
wind
direction
speed
KPH
gust
KPH
rain 1hr
cm
rain 24hr
cm
rain mn
cm
humidity
%
barometer
mb
20260504192746 21 98 3.2 9.7 0.00 0.00 0.00 37 1008.0
20260504192246 20 300 3.2 4.8 0.00 0.00 0.00 38 1008.0
20260504191749 20 236 3.2 8.0 0.00 0.00 0.00 37 1008.0
20260504191247 20 244 4.8 9.7 0.00 0.00 0.00 37 1008.0
20260504190746 20 297 4.8 6.4 0.00 0.00 0.00 38 1008.0
20260504190247 20 323 3.2 6.4 0.00 0.00 0.00 38 1008.0
20260504185746 21 250 4.8 11.3 0.00 0.00 0.00 38 1008.0
20260504185247 21 242 1.6 6.4 0.00 0.00 0.00 37 1008.0
20260504184747 21 137 3.2 6.4 0.00 0.00 0.00 37 1008.0
20260504184246 21 326 4.8 8.0 0.00 0.00 0.00 37 1008.0
20260504183746 20 165 4.8 14.5 0.00 0.00 0.00 37 1008.0
20260504183247 20 300 3.2 8.0 0.00 0.00 0.00 38 1008.0
20260504182746 20 185 6.4 12.9 0.00 0.00 0.00 37 1008.0
20260504182247 20 242 3.2 8.0 0.00 0.00 0.00 38 1008.0
20260504181746 20 219 3.2 6.4 0.00 0.00 0.00 37 1008.0
20260504181247 20 238 4.8 9.7 0.00 0.00 0.00 36 1008.0
20260504180746 20 266 3.2 6.4 0.00 0.00 0.00 36 1008.0
20260504180247 20 165 8.0 12.9 0.00 0.00 0.00 37 1008.0
20260504175747 20 228 3.2 9.7 0.00 0.00 0.00 36 1008.0
20260504175247 20 267 4.8 11.3 0.00 0.00 0.00 36 1008.0
20260504174747 20 158 9.7 12.9 0.00 0.00 0.00 35 1008.0
20260504174246 20 159 6.4 16.1 0.00 0.00 0.00 36 1008.0
20260504173747 20 300 3.2 4.8 0.00 0.00 0.00 35 1008.0
20260504173247 20 333 6.4 12.9 0.00 0.00 0.00 36 1008.0
20260504172747 20 282 1.6 4.8 0.00 0.00 0.00 36 1008.0
20260504172247 19 182 4.8 8.0 0.00 0.00 0.00 36 1008.0
20260504171748 19 171 3.2 8.0 0.00 0.00 0.00 37 1008.0
20260504171247 19 217 1.6 4.8 0.00 0.00 0.00 37 1008.0
20260504170746 19 199 6.4 11.3 0.00 0.00 0.00 36 1009.0
20260504170246 19 329 4.8 8.0 0.00 0.00 0.00 37 1009.0
20260504160247 18 307 3.2 4.8 0.00 0.00 0.00 38 1009.0
20260504150748 17 303 3.2 9.7 0.00 0.00 0.00 41 1010.0
20260504150248 16 225 1.6 4.8 0.00 0.00 0.00 42 1010.0
20260504141249 15 305 3.2 6.4 0.00 0.00 0.00 46 1010.0
20260504140746 15 166 8.0 14.5 0.00 0.00 0.00 47 1010.0
20260504140248 15 205 3.2 6.4 0.00 0.00 0.00 47 1011.0
20260504130750 12 178 3.2 4.8 0.00 0.00 0.00 51 1011.0
20260504130248 12 98 1.6 4.8 0.00 0.00 0.00 51 1011.0
20260504120247 10 82 0.0 3.2 0.00 0.00 0.00 56 1011.0
20260504110247 8 0 0.0 0.0 0.00 0.00 0.00 62 1011.0
20260504100249 4 252 0.0 1.6 0.00 0.00 0.00 75 1011.0
20260504081748 5 0 0.0 0.0 0.00 0.00 0.00 71 1011.0
20260504081247 6 0 0.0 0.0 0.00 0.00 0.00 72 1011.0
20260504080746 6 201 0.0 0.0 0.00 0.00 0.00 69 1011.0
20260504080246 6 0 0.0 0.0 0.00 0.00 0.00 69 1011.0
20260504070247 6 0 0.0 0.0 0.00 0.00 0.00 65 1011.0
20260504060246 6 0 0.0 0.0 0.00 0.00 0.00 60 1011.0
20260504050746 6 0 0.0 0.0 0.00 0.00 0.00 66 1011.0
20260504050246 6 0 0.0 0.0 0.00 0.00 0.00 66 1011.0
20260504045747 6 0 0.0 0.0 0.00 0.00 0.00 63 1011.0
20260504045246 6 0 0.0 0.0 0.00 0.00 0.00 65 1011.0
20260504044746 6 233 0.0 3.2 0.00 0.00 0.00 65 1011.0
20260504044246 6 270 0.0 1.6 0.00 0.00 0.00 61 1011.0
20260504043746 6 0 0.0 0.0 0.00 0.00 0.00 65 1011.0
20260504043246 6 251 0.0 1.6 0.00 0.00 0.00 62 1011.0
20260504042746 6 0 0.0 0.0 0.00 0.00 0.00 64 1011.0
20260504042246 6 0 0.0 0.0 0.00 0.00 0.00 63 1011.0
20260504041746 6 0 0.0 0.0 0.00 0.00 0.00 63 1011.0
20260504041247 6 0 0.0 0.0 0.00 0.00 0.00 64 1011.0
20260504040746 6 0 0.0 0.0 0.00 0.00 0.00 64 1011.0
20260504040246 6 238 0.0 1.6 0.00 0.00 0.00 62 1011.0
20260504035746 6 0 0.0 0.0 0.00 0.00 0.00 65 1011.0
20260504035246 6 0 0.0 0.0 0.00 0.00 0.00 62 1011.0
20260504034746 6 254 0.0 3.2 0.00 0.00 0.00 62 1011.0
20260504034246 6 0 0.0 0.0 0.00 0.00 0.00 59 1011.0
20260504033747 6 0 0.0 0.0 0.00 0.00 0.00 64 1011.0
20260504033246 5 0 0.0 0.0 0.00 0.00 0.00 63 1011.0
20260504032746 5 0 0.0 0.0 0.00 0.00 0.00 65 1011.0
20260504032246 5 0 0.0 0.0 0.00 0.00 0.00 66 1010.0
20260504031747 5 0 0.0 0.0 0.00 0.00 0.00 66 1010.0
20260504031246 5 0 0.0 0.0 0.00 0.00 0.00 66 1010.0
20260504030746 5 0 0.0 0.0 0.00 0.00 0.00 65 1010.0
20260504030246 5 0 0.0 0.0 0.00 0.00 0.00 66 1010.0
20260504025746 5 294 0.0 1.6 0.00 0.00 0.00 65 1010.0
20260504025246 5 0 0.0 0.0 0.00 0.00 0.00 65 1010.0
20260504024746 4 226 0.0 1.6 0.00 0.00 0.00 64 1010.0
20260504024246 4 0 0.0 0.0 0.00 0.00 0.00 66 1010.0
20260504023746 4 0 0.0 0.0 0.00 0.00 0.00 66 1010.0
20260504023246 3 247 0.0 0.0 0.00 0.00 0.00 68 1010.0
20260504022746 3 0 0.0 0.0 0.00 0.00 0.00 70 1010.0
20260504022246 3 0 0.0 0.0 0.00 0.00 0.00 73 1010.0
20260504021748 3 0 0.0 0.0 0.00 0.00 0.00 76 1010.0
20260504021247 3 0 0.0 0.0 0.00 0.00 0.00 75 1010.0
20260504020746 3 0 0.0 0.0 0.00 0.00 0.00 77 1010.0
20260504020246 3 0 0.0 0.0 0.00 0.00 0.00 73 1010.0
20260504015747 3 0 0.0 0.0 0.00 0.00 0.00 72 1010.0
20260504015246 4 0 0.0 0.0 0.00 0.00 0.00 70 1010.0
20260504014746 4 0 0.0 0.0 0.00 0.00 0.00 69 1010.0
20260504014246 4 0 0.0 0.0 0.00 0.00 0.00 72 1010.0
20260504013746 4 0 0.0 0.0 0.00 0.00 0.00 74 1010.0
20260504013246 4 0 0.0 0.0 0.00 0.00 0.00 72 1010.0
20260504012746 5 0 0.0 0.0 0.00 0.00 0.00 72 1010.0
20260504012246 5 0 0.0 0.0 0.00 0.00 0.00 71 1010.0
20260504011746 5 0 0.0 0.0 0.00 0.00 0.00 70 1010.0
20260504011246 5 0 0.0 0.0 0.00 0.00 0.00 67 1010.0
20260504010746 5 0 0.0 0.0 0.00 0.00 0.00 64 1010.0
20260504010246 5 0 0.0 0.0 0.00 0.00 0.00 66 1010.0
20260504005746 5 0 0.0 0.0 0.00 0.00 0.00 63 1009.0
20260504005247 5 243 0.0 0.0 0.00 0.00 0.00 66 1009.0
20260504004747 5 0 0.0 0.0 0.00 0.00 0.00 65 1009.0
20260504004246 6 278 0.0 1.6 0.00 0.00 0.00 65 1009.0
20260504003746 6 0 0.0 0.0 0.00 0.00 0.00 63 1009.0
20260504003246 6 0 0.0 0.0 0.00 0.00 0.00 62 1009.0
20260504002746 6 247 0.0 0.0 0.00 0.00 0.00 62 1009.0
20260504002247 6 249 3.2 3.2 0.00 0.00 0.00 60 1009.0
20260504001746 6 259 0.0 3.2 0.00 0.00 0.00 59 1009.0
20260504001246 6 0 0.0 0.0 0.00 0.00 0.00 62 1009.0
20260504000747 6 0 0.0 0.0 0.00 0.00 0.00 64 1009.0
20260504000247 7 269 0.0 1.6 0.00 0.00 0.00 62 1009.0
20260503235746 7 0 0.0 0.0 0.00 0.00 0.00 59 1009.0
20260503235246 7 274 0.0 1.6 0.00 0.00 0.00 57 1009.0
20260503234747 7 0 0.0 0.0 0.00 0.00 0.00 53 1009.0
20260503234246 8 0 0.0 0.0 0.00 0.00 0.00 54 1009.0
20260503233747 8 0 0.0 0.0 0.00 0.00 0.00 54 1009.0
20260503233246 8 0 0.0 0.0 0.00 0.00 0.00 51 1009.0
20260503232747 8 0 0.0 0.0 0.00 0.00 0.00 52 1009.0
20260503232246 8 45 1.6 4.8 0.00 0.00 0.00 50 1009.0
20260503231746 9 0 0.0 0.0 0.00 0.00 0.00 48 1009.0
20260503231246 9 0 0.0 0.0 0.00 0.00 0.00 48 1009.0
20260503230746 10 0 0.0 0.0 0.00 0.00 0.00 49 1009.0
20260503230246 10 0 0.0 0.0 0.00 0.00 0.00 47 1009.0
20260503225746 10 149 1.6 6.4 0.00 0.00 0.00 45 1009.0
20260503225246 10 252 1.6 3.2 0.00 0.00 0.00 45 1009.0
20260503224746 10 0 0.0 0.0 0.00 0.00 0.00 44 1008.0
20260503224246 10 0 0.0 0.0 0.00 0.00 0.00 43 1008.0
20260503223747 10 266 0.0 4.8 0.00 0.00 0.00 43 1008.0
20260503223246 10 312 0.0 3.2 0.00 0.00 0.00 44 1008.0
20260503222746 10 325 3.2 4.8 0.00 0.00 0.00 43 1008.0
20260503222246 10 243 1.6 4.8 0.00 0.00 0.00 43 1008.0
20260503221746 10 10 0.0 3.2 0.00 0.00 0.00 44 1008.0
20260503221246 10 268 0.0 1.6 0.00 0.00 0.00 44 1008.0
20260503220746 10 353 1.6 6.4 0.00 0.00 0.00 43 1008.0
20260503220246 10 318 3.2 6.4 0.00 0.00 0.00 43 1008.0
20260503215746 10 334 1.6 6.4 0.00 0.00 0.00 43 1008.0
20260503215246 10 279 3.2 6.4 0.00 0.00 0.00 42 1008.0
20260503214747 10 314 3.2 4.8 0.00 0.00 0.00 42 1008.0
20260503214247 11 270 4.8 8.0 0.00 0.00 0.00 42 1008.0
20260503213746 11 301 3.2 8.0 0.00 0.00 0.00 41 1008.0
20260503213246 11 347 3.2 4.8 0.00 0.00 0.00 41 1008.0
20260503212746 11 304 3.2 3.2 0.00 0.00 0.00 41 1008.0
20260503212246 11 295 3.2 6.4 0.00 0.00 0.00 41 1008.0
20260503211746 11 285 4.8 6.4 0.00 0.00 0.00 41 1008.0
20260503211246 11 255 0.0 3.2 0.00 0.00 0.00 42 1008.0
20260503210746 11 281 4.8 6.4 0.00 0.00 0.00 42 1008.0
20260503210246 10 341 6.4 9.7 0.00 0.00 0.00 42 1008.0
20260503205746 10 275 1.6 3.2 0.00 0.00 0.00 43 1008.0
20260503205246 10 339 1.6 3.2 0.00 0.00 0.00 43 1008.0
20260503204747 10 303 1.6 4.8 0.00 0.00 0.00 43 1008.0
20260503204246 10 335 3.2 8.0 0.00 0.00 0.00 42 1008.0
20260503203746 10 351 3.2 6.4 0.00 0.00 0.00 43 1008.0
20260503203246 10 356 3.2 8.0 0.00 0.00 0.00 42 1008.0
20260503202746 10 247 3.2 6.4 0.00 0.00 0.00 43 1008.0
20260503202247 10 43 3.2 8.0 0.00 0.00 0.00 42 1008.0
20260503201746 10 324 3.2 6.4 0.00 0.00 0.00 42 1008.0
20260503201246 10 278 4.8 8.0 0.00 0.00 0.00 42 1008.0
20260503200746 10 273 1.6 6.4 0.00 0.00 0.00 44 1008.0
20260503200248 10 0 6.4 11.3 0.00 0.00 0.00 43 1008.0
20260503195746 10 305 3.2 6.4 0.00 0.00 0.00 44 1008.0
20260503195246 10 314 3.2 6.4 0.00 0.00 0.00 43 1008.0
20260503194746 10 228 4.8 8.0 0.00 0.00 0.00 44 1008.0
20260503194246 10 311 3.2 6.4 0.00 0.00 0.00 43 1008.0
20260503193747 10 303 3.2 4.8 0.00 0.00 0.00 43 1008.0
20260503193246 10 243 1.6 6.4 0.00 0.00 0.00 42 1008.0